Location: Mountain Grove
(34.0887°N, 86.6172°W)
Time: 22:08:39
(UTC+00:00)

Meteor 1-28 Rocket - Pass Details

Date: 14 July 2020
Orbit: 505 x 522 km, 97.3° (Epoch: 08 August)

Event Time Altitude Azimuth Distance (km) Brightness Sun altitude
Exits shadow 08:51:06 44° 163° (SSE) 704 3.6 -20.0°
Maximum altitude 08:52:11 86° 80° (E) 513 3.1 -19.8°
Drops below altitude 10° 08:55:55 10° 350° (N) 1,730 6.3 -19.3°
Sets 08:58:01 0° 350° (N) 2,622 7.3 -19.0°
